www.pogodaiklimat.ru
Время
и дата
07:44 30.12
07:53 30.12
08:11 30.12
08:49 30.12
08:53 30.12
08:58 30.12
09:05 30.12
09:45 30.12
09:53 30.12
10:53 30.12
11:53 30.12
12:53 30.12
13:53 30.12
14:53 30.12
15:53 30.12
16:53 30.12
17:53 30.12
18:53 30.12
19:53 30.12
20:53 30.12
21:53 30.12
22:53 30.12
23:53 30.12
00:06 31.12
00:53 31.12
01:53 31.12
02:53 31.12
03:53 31.12
04:53 31.12
05:15 31.12
05:30 31.12
05:53 31.12
06:04 31.12
06:32 31.12
06:53 31.12
07:53 31.12
08:53 31.12
09:09 31.12
09:53 31.12
10:36 31.12
10:53 31.12
11:09 31.12
11:53 31.12
12:53 31.12
13:53 31.12
14:53 31.12
15:53 31.12
16:53 31.12
Ветер
(напр.,м/с)
Видим. Явления Облачность Т
(С)
Тd
(С)
f
(%)
Тe
(С)
Тes
(С)
Комфортность P
(гПа)
Po
(гПа)
Тmin
(С)
Tmax
(С)
R
(мм)
R24
(мм)
S
(см)
штиль 0 1 км дымка 10/10 270 м +20.6 +19.4 93 +25 +25 комфорт 1009.2
Ю 1 1 км дымка 10/10 270 м +20.6 +19.4 93 +25 +25 комфорт 1013.0 1009.5
Ю 1 2 км дымка 8/8 270 м +21.1 +20.0 93 +26 +26 душно 1009.5
штиль 0 3 км дымка 8/8 270 м +22.0 +21.0 94 +28 +29 душно 1010.2
штиль 0 4 км дымка 8/8 270 м +22.2 +20.6 91 +29 +29 очень
душно
1013.8 1010.2
штиль 0 5 км дымка 8/8 270 м +22.2 +20.6 91 +29 +29 очень
душно
1010.2
штиль 0 5 км дымка 8/8 270 м +22.2 +20.6 91 +29 +29 очень
душно
1010.5
Ю 1 8 км мгла 5/5 240 м +23.3 +20.6 85 +31 +32 очень
душно
1010.2
ЮВ 1 8 км мгла 2/2 240 м +23.3 +20.6 85 +31 +32 очень
душно
1013.9 1010.5
ЮВ 2 10 км мгла ясно +25.0 +20.0 74 +31 +34 очень
душно
1012.9 1009.2
ЮВ 2 13 км ясно +26.7 +18.9 62 +32 +35 очень
душно
1012.1 1008.5 +20.6 +26.7
Ю 1 13 км ясно +27.2 +18.9 60 +32 +39 очень
душно
1011.7 1008.2
ЮЗ 1 13 км ясно +27.8 +19.4 60 +33 +41 очень
душно
1011.0 1007.5
ЮЗ 1 14 км ясно +28.3 +17.8 53 +33 +37 очень
душно
1010.9 1007.5
ЮЗ 1 13 км ясно +27.8 +17.8 55 +32 +35 душно 1010.8 1007.2
Ю 1 11 км 2/0 3600 м
[Ac]
+26.1 +18.9 65 +31 +32 очень
душно
1010.8 1007.2
Ю 1 13 км ясно +23.9 +17.8 69 +28 +28 душно 1010.9 1007.5 +23.3 +28.3
Ю 1 11 км ясно +22.2 +18.9 82 +28 +28 душно 1011.3 1007.8
Ю 1 10 км мгла ясно +21.7 +18.3 81 +26 +26 душно 1011.5 1007.8
Ю 1 10 км мгла ясно +22.2 +19.4 84 +28 +28 душно 1011.8 1008.2
Ю 1 10 км дымка ясно +22.2 +20.0 87 +28 +28 душно 1012.0 1008.5
Ю 2 10 км дымка 5/5 990 м +22.2 +20.0 87 +28 +28 душно 1011.8 1008.2
Ю 1 10 км дымка 10/10 330 м +21.7 +20.0 90 +27 +27 душно 1011.5 1007.8 +21.1 +23.9
Ю 1 10 км дымка 10/10 330 м +22.2 +20.0 87 +28 +28 душно 1007.8
Ю 1 10 км дымка 10/10 300 м +22.2 +20.0 87 +28 +28 душно 1011.1 1007.5
Ю 1 10 км дымка 10/10 300 м +22.2 +20.0 87 +28 +28 душно 1011.0 1007.5
Ю 2 10 км дымка 10/10 360 м +22.2 +20.0 87 +28 +28 душно 1010.6 1007.2
ЮЗ 1 8 км дымка 8/8 330 м +22.2 +20.0 87 +28 +28 душно 1010.5 1006.8
ЮЗ 1 8 км мгла 10/10 360 м +22.8 +20.0 84 +29 +29 очень
душно
1010.5 1006.8
ЮЗ 1 8 км дымка 8/8 450 м +22.2 +20.0 87 +28 +28 душно 1007.2
ЮЗ 1 8 км дымка 10/10 390 м +22.2 +20.0 87 +28 +28 душно 1007.2
штиль 0 8 км дымка 10/10 390 м +22.2 +20.6 91 +29 +29 очень
душно
1011.1 1007.5 +21.7 +22.8
ЮЗ 1 8 км дымка 10/10 390 м +22.2 +20.0 87 +28 +28 душно 1007.5
штиль 0 8 км дымка 10/10 330 м +22.2 +20.0 87 +28 +28 душно 1007.5
Ю 1 8 км дымка 10/10 330 м +22.2 +20.0 87 +28 +28 душно 1011.2 1007.5
ЮЗ 1 6 км дымка 10/10 360 м +22.8 +20.6 87 +30 +30 очень
душно
1011.6 1008.2
Ю 2 8 км мгла 8/8 420 м +23.9 +21.1 84 +30 +30 очень
душно
1011.8 1008.2
Ю 2 8 км мгла 10/10 450 м +23.9 +21.1 84 +30 +30 очень
душно
1008.5
ЮЗ 3
{4}
10 км мгла 5/5 510 м +25.0 +20.6 77 +31 +31 очень
душно
1012.3 1008.8
Ю 3
{4}
11 км 8/8 660 м +25.6 +20.6 74 +32 +32 очень
душно
1008.8
ЮЗ 2 11 км 10/10 660 м +25.6 +20.0 71 +31 +31 очень
душно
1012.1 1008.5
ЮЗ 2 11 км 8/8 630 м +26.1 +20.6 72 +33 +33 очень
душно
1008.2
ЮЗ 3
{5}
11 км 8/8 1020 м +27.8 +20.0 63 +34 +35 очень
душно
1010.9 1007.5 +21.7 +27.8
ЮЗ 3 11 км 2/2 960 м +28.3 +20.0 61 +35 +36 очень
душно
1009.6 1006.1
Ю 4
{5}
11 км 5/5 1140 м +27.8 +19.4 60 +33 +34 очень
душно
1008.6 1005.1
Ю 4
{5}
11 км 8/8 1200 м +28.3 +19.4 59 +34 +34 очень
душно
1008.3 1004.8
Ю 3 13 км 5/5 1170 м +27.2 +18.9 60 +32 +33 очень
душно
1008.7 1005.1
Ю 2
{5}
11 км 5/5 1020 м +26.1 +18.9 65 +31 +32 очень
душно
1008.8 1005.1
Местоположение метеостанции Alexandria International Airport: широта 31.3347 долгота -92.5586 высота над уровнем моря 27 м.
В архиве по умолчанию представлена погода в Александрии за последние 1-2 суток. Обновление информации о фактической погоде в базе происходит ежечасно! Архивные данные за месяц целиком и за предыдущие месяцы Вы можете получить, выбрав интересующий диапазон дат из раскрывающегося списка и нажав кнопку "Ввод!".
Внимание! Архив погоды МЕТАР в базе сайта по станциям, не включенным в климатический монитор, хранится не более 60 дней. Нет смысла пытаться выбрать более раннюю дату.
*Определитесь, кто Вы:
Внимание! Время в таблицах - местное (без учета летнего времени). Для получения всемирного времени необходимо вычесть поправку, которая равна -6 ч.
Смотрите также архив погоды в соседних городах и на ближайших метеорологических станциях:
Партнеры нашего сайта:      
Пояснения к столбцам:
  • Ветер - указаны скорость ветра в м/с - средняя за 10 мин, порывы в срок и между сроками (в фигурных скобках) и направление, откуда дует ветер: С - северный,
  • СВ - северо-восточный, В - восточный, ЮВ - юго-восточный, Ю - южный, ЮЗ - юго-западный, З - западный, СЗ - северо-западный.
  • Видимость - горизонтальная дальность видимости в метрах или километрах. При видимости от 1 до 10 км при отсутствии осадков обычно наблюдается дымка, при ухудшении видимости до 1 км и менее - туман. В сухую погоду видимость может ухудшаться дымом, пылью или мглою.
  • Явления - указаны атмосферные явления, наблюдавшиеся в срок или в последний час перед сроком; фигурными скобками обозначены явления, наблюдавшиеся между сроками (за 1-3 часа до срока); квадратными скобками обозначены град или гололедные отложения с указанием их диаметра в мм.
  • Облачность - указаны через наклонную черту общая и нижняя облачность в баллах и высота нижней границы облаков в метрах; квадратными скобками обозначены формы облаков: Ci - перистые, Cs - перисто-слоистые, Cc - перисто-кучевые, Ac - высококучевые, As - высокослоистые, Sc - слоисто-кучевые, Ns - слоисто-дождевые, Cu - кучевые, Cb - кучево-дождевые. Подробнее классификацию облаков см. в Атласе облаков (PDF).
  • T - Температура воздуха - температура, измеренная на высоте 2 м над землей.
  • Td - Температура точки росы - температура, при понижении до которой содержащийся в воздухе водяной пар достигнет насыщения.
  • f - Относительная влажность воздуха - влажноcть воздуха, измеренная на высоте 2 м над землей.
  • Te - Эффективная температура - температура, которую ощущает одетый по сезону человек в тени. Характеристика душности погоды. При расчете учитывается влияние влажности воздуха и скорости ветра на теплоощущения человека.
  • Tes - Эффективная температура на солнце - температура, которую ощущает человек, с поправкой на солнечный нагрев. Характеристика знойности погоды. Зависит от высоты солнца над горизонтом, облачности и скорости ветра. Ночью, в пасмурную погоду, а также при ветре 12 м/с и более поправка равна нулю.
  • P - Атмосферное давление - приведенное к уровню моря атмосферное давление.
  • Po - Атмосферное давление - измеренное на уровне метеостанции атмосферное давление.
  • Tmin - Минимальная температура - минимум температуры воздуха на высоте 2 м над землей.
  • Tmax - Максимальная температура - максимум температуры воздуха на высоте 2 м над землей.
  • R - Количество осадков - Количество выпавших осадков за период времени, мм. При наведении курсора мыши на число - период времени, за который выпало указанное количество осадков.
  • R24 - Количество осадков - Количество выпавших осадков за 24 часа, мм.
  • S - Снежный покров - Высота снежного покрова, см. При наведении курсора мыши на число - состояние снежного покрова и степень покрытия местности в баллах.